EW1440 Weather Reports


Display with metric or nautical units.
time (UTC)temp
F
wind
direction
speed
MPH
gust
MPH
rain 1hr
in
rain 24hr
in
rain mn
in
humidity
%
barometer
mb
20260901134611 76 92 3.0 7.0 0.00 0.00 0.00 92 1017.1
20260901134034 76 122 2.0 5.0 0.00 0.00 0.00 92 1017.1
20260901133534 76 130 2.0 5.0 0.00 0.00 0.00 92 1017.0
20260901133100 75 95 0.0 3.0 0.00 0.00 0.00 92 1017.0
20260901132534 75 95 2.0 3.0 0.00 0.00 0.00 92 1017.0
20260901132036 75 30 0.0 3.0 0.00 0.00 0.00 92 1017.1
20260901131558 74 0 0.0 2.0 0.00 0.00 0.00 91 1017.1
20260901131037 73 158 0.0 1.0 0.00 0.00 0.00 91 1017.1
20260901130534 73 0 0.0 0.0 0.00 0.00 0.00 90 1017.1
20260901130056 73 0 0.0 1.0 0.00 0.00 0.00 89 1017.0
20260901125535 72 0 0.0 2.0 0.00 0.00 0.00 89 1017.0
20260901125034 72 0 0.0 2.0 0.00 0.00 0.00 88 1017.0
20260901124602 72 0 0.0 2.0 0.00 0.00 0.00 87 1016.9
20260901124035 72 0 0.0 1.0 0.00 0.00 0.00 87 1016.8
20260901123534 72 0 0.0 1.0 0.00 0.00 0.00 86 1016.7
20260901123058 72 0 0.0 1.0 0.00 0.00 0.00 86 1016.7
20260901122534 72 0 0.0 2.0 0.00 0.00 0.00 86 1016.7
20260901122034 72 0 0.0 2.0 0.00 0.00 0.00 86 1016.8
20260901121556 72 0 0.0 2.0 0.00 0.00 0.00 86 1016.7
20260901121033 72 158 0.0 1.0 0.00 0.00 0.00 86 1016.6
20260901120534 73 0 0.0 0.0 0.00 0.00 0.00 86 1016.7
20260901120059 73 0 0.0 0.0 0.00 0.00 0.00 86 1016.7
20260901115534 73 0 0.0 0.0 0.00 0.00 0.00 85 1016.6
20260901115033 73 0 0.0 0.0 0.00 0.00 0.00 85 1016.7
20260901114558 73 0 0.0 0.0 0.00 0.00 0.00 85 1016.6
20260901114033 74 0 0.0 2.0 0.00 0.00 0.00 85 1016.5
20260901113533 74 0 0.0 2.0 0.00 0.00 0.00 85 1016.5
20260901113052 74 158 1.0 2.0 0.00 0.00 0.00 85 1016.5
20260901112537 74 158 0.0 2.0 0.00 0.00 0.00 85 1016.5
20260901112034 75 0 0.0 0.0 0.00 0.00 0.00 85 1016.5
20260901111559 75 0 0.0 0.0 0.00 0.00 0.00 85 1016.4
20260901111034 75 0 0.0 2.0 0.00 0.00 0.00 85 1016.5
20260901110533 75 0 0.0 2.0 0.00 0.00 0.00 85 1016.5
20260901110100 75 0 0.0 2.0 0.00 0.00 0.00 85 1016.6
20260901105533 76 0 0.0 0.0 0.00 0.00 0.00 85 1016.5
20260901105036 76 0 0.0 0.0 0.00 0.00 0.00 85 1016.6
20260901104558 76 0 0.0 0.0 0.00 0.00 0.00 85 1016.5
20260901104037 76 0 0.0 0.0 0.00 0.00 0.00 85 1016.5
20260901103533 77 0 0.0 0.0 0.00 0.00 0.00 85 1016.6
20260901103054 77 0 0.0 3.0 0.00 0.00 0.00 85 1016.7
20260901102533 77 0 0.0 3.0 0.00 0.00 0.00 86 1016.6
20260901102033 77 158 0.0 2.0 0.00 0.00 0.00 86 1016.6
20260901101549 77 0 0.0 2.0 0.00 0.00 0.00 86 1016.5
20260901101035 78 0 0.0 3.0 0.00 0.00 0.00 86 1016.6
20260901100533 78 158 0.0 3.0 0.00 0.00 0.00 86 1016.6
20260901100100 78 158 1.0 5.0 0.00 0.00 0.00 86 1016.5
20260901095532 78 130 1.0 5.0 0.00 0.00 0.00 86 1016.6
20260901095032 78 159 2.0 5.0 0.00 0.00 0.00 86 1016.6
20260901094557 78 146 2.0 6.0 0.00 0.00 0.00 86 1016.6
20260901094040 78 137 2.0 6.0 0.00 0.00 0.00 86 1016.6
20260901093537 78 135 2.0 8.0 0.00 0.00 0.00 86 1016.6
20260901093054 78 153 2.0 9.0 0.00 0.00 0.00 86 1016.8
20260901092533 78 183 4.0 9.0 0.00 0.00 0.00 86 1016.8
20260901092033 78 137 2.0 8.0 0.00 0.00 0.00 86 1016.9
20260901091558 78 164 3.0 8.0 0.00 0.00 0.00 86 1016.8
20260901091032 78 147 2.0 5.0 0.00 0.00 0.00 85 1016.8
20260901090532 78 140 1.0 4.0 0.00 0.00 0.00 85 1016.9
20260901090105 78 116 1.0 3.0 0.00 0.00 0.00 85 1016.8
20260901085532 78 167 0.0 4.0 0.00 0.00 0.00 84 1016.8
20260901085032 78 145 1.0 4.0 0.00 0.00 0.00 84 1016.8
20260901084556 78 0 0.0 3.0 0.00 0.00 0.00 84 1016.8
20260901084033 78 133 1.0 4.0 0.00 0.00 0.00 84 1016.8
20260901083537 78 133 2.0 5.0 0.00 0.00 0.00 83 1016.7
20260901083052 78 148 2.0 6.0 0.00 0.00 0.00 83 1016.6
20260901082534 78 147 2.0 6.0 0.00 0.00 0.00 83 1016.5
20260901082037 78 133 2.0 6.0 0.00 0.00 0.00 83 1016.6
20260901081600 78 144 2.0 6.0 0.00 0.00 0.00 83 1016.6
20260901081033 78 152 2.0 5.0 0.00 0.00 0.00 82 1016.7
20260901080533 78 130 2.0 5.0 0.00 0.00 0.00 82 1016.7
20260901080059 78 120 1.0 4.0 0.00 0.00 0.00 82 1016.7
20260901075533 78 121 1.0 4.0 0.00 0.00 0.00 81 1016.8
20260901075032 78 161 1.0 4.0 0.00 0.00 0.00 81 1016.8
20260901074600 79 120 2.0 4.0 0.00 0.00 0.00 80 1016.7
20260901074032 79 120 1.0 5.0 0.00 0.00 0.00 80 1016.7
20260901073534 79 120 1.0 5.0 0.00 0.00 0.00 79 1016.6
20260901073047 79 141 1.0 5.0 0.00 0.00 0.00 79 1016.7
20260901072533 79 120 1.0 3.0 0.00 0.00 0.00 79 1016.7
20260901072032 79 120 0.0 5.0 0.00 0.00 0.00 79 1016.7
20260901071557 79 116 1.0 5.0 0.00 0.00 0.00 79 1016.7
20260901071034 79 132 2.0 7.0 0.00 0.00 0.00 78 1016.7
20260901070537 79 138 2.0 7.0 0.00 0.00 0.00 78 1016.6
20260901070104 80 133 2.0 7.0 0.00 0.00 0.00 77 1016.5
20260901065533 80 124 3.0 7.0 0.00 0.00 0.00 77 1016.5
20260901065033 80 118 4.0 9.0 0.00 0.00 0.00 77 1016.5
20260901064603 80 151 2.0 10.0 0.00 0.00 0.00 77 1016.5
20260901064034 80 155 5.0 10.0 0.00 0.00 0.00 76 1016.6
20260901063533 80 196 2.0 10.0 0.00 0.00 0.00 76 1016.5
20260901063102 80 147 3.0 10.0 0.00 0.00 0.00 76 1016.4
20260901062535 81 170 5.0 11.0 0.00 0.00 0.00 75 1016.5
20260901062033 81 155 6.0 11.0 0.00 0.00 0.00 75 1016.4
20260901061559 81 148 6.0 11.0 0.00 0.00 0.00 74 1016.3
20260901061034 81 155 7.0 12.0 0.00 0.00 0.00 74 1016.3
20260901060535 81 163 5.0 12.0 0.00 0.00 0.00 73 1016.3
20260901060059 81 143 5.0 12.0 0.00 0.00 0.00 73 1016.3
20260901055533 81 153 5.0 9.0 0.00 0.00 0.00 72 1016.3
20260901055035 82 134 5.0 9.0 0.00 0.00 0.00 71 1016.2
20260901054554 82 178 4.0 9.0 0.00 0.00 0.00 71 1016.2
20260901054033 82 158 5.0 9.0 0.00 0.00 0.00 70 1016.1
20260901053536 82 147 5.0 10.0 0.00 0.00 0.00 70 1016.1
20260901053118 82 139 5.0 16.0 0.00 0.00 0.00 69 1016.0
20260901052532 82 152 6.0 16.0 0.00 0.00 0.00 69 1016.0
20260901052033 83 154 5.0 14.0 0.00 0.00 0.00 68 1015.8
20260901051609 83 169 7.0 14.0 0.00 0.00 0.00 68 1015.8
20260901051033 83 116 6.0 14.0 0.00 0.00 0.00 67 1015.9
20260901050536 83 130 6.0 17.0 0.00 0.00 0.00 67 1015.9
20260901050100 83 120 7.0 17.0 0.00 0.00 0.00 66 1015.9
20260901045534 83 137 8.0 15.0 0.00 0.00 0.00 66 1015.9
20260901045033 84 113 7.0 17.0 0.00 0.00 0.00 65 1015.6
20260901044607 84 137 7.0 18.0 0.00 0.00 0.00 64 1015.7
20260901044033 84 129 10.0 18.0 0.00 0.00 0.00 64 1015.6
20260901043536 84 140 5.0 17.0 0.00 0.00 0.00 64 1015.6
20260901043050 84 123 8.0 18.0 0.00 0.00 0.00 63 1015.6
20260901042532 84 155 6.0 18.0 0.00 0.00 0.00 63 1015.5
20260901042032 85 143 9.0 17.0 0.00 0.00 0.00 63 1015.4
20260901041602 85 140 8.0 16.0 0.00 0.00 0.00 62 1015.4
20260901041035 85 141 7.0 18.0 0.00 0.00 0.00 62 1015.4
20260901040534 85 128 8.0 18.0 0.00 0.00 0.00 62 1015.5
20260901040111 85 149 8.0 18.0 0.00 0.00 0.00 62 1015.5
20260901035534 85 158 9.0 16.0 0.00 0.00 0.00 61 1015.4
20260901035034 85 159 6.0 16.0 0.00 0.00 0.00 61 1015.4
20260901034605 85 165 8.0 17.0 0.00 0.00 0.00 61 1015.3
20260901034035 85 150 8.0 17.0 0.00 0.00 0.00 60 1015.3
20260901033533 85 167 8.0 15.0 0.00 0.00 0.00 59 1015.2
20260901033101 85 160 8.0 15.0 0.00 0.00 0.00 59 1015.2
20260901032536 86 132 7.0 14.0 0.00 0.00 0.00 58 1015.1
20260901032035 86 136 7.0 14.0 0.00 0.00 0.00 57 1015.1
20260901031559 86 156 6.0 15.0 0.00 0.00 0.00 57 1015.0
20260901031036 86 131 8.0 17.0 0.00 0.00 0.00 56 1014.9
20260901030532 86 166 7.0 17.0 0.00 0.00 0.00 56 1014.8
20260901030101 87 138 7.0 13.0 0.00 0.00 0.00 56 1014.7
20260901025534 87 160 7.0 17.0 0.00 0.00 0.00 56 1014.7
20260901025035 87 126 6.0 19.0 0.00 0.00 0.00 56 1014.7
20260901024601 87 125 9.0 19.0 0.00 0.00 0.00 56 1014.6
20260901024032 86 147 10.0 18.0 0.00 0.00 0.00 56 1014.4
20260901023534 86 180 8.0 16.0 0.00 0.00 0.00 56 1014.3
20260901023107 85 141 8.0 15.0 0.00 0.00 0.00 56 1014.2
20260901022534 85 155 6.0 13.0 0.00 0.00 0.00 55 1014.1
20260901022033 85 134 2.0 6.0 0.00 0.00 0.00 54 1014.0
20260901021600 85 122 2.0 5.0 0.00 0.00 0.00 53 1013.9
20260901021033 85 139 2.0 5.0 0.00 0.00 0.00 53 1013.9
20260901020535 86 121 2.0 5.0 0.00 0.00 0.00 53 1013.8
20260901020057 86 138 1.0 3.0 0.00 0.00 0.00 52 1013.8
20260901015534 87 109 1.0 2.0 0.00 0.00 0.00 52 1013.8
20260901015033 87 109 0.0 2.0 0.00 0.00 0.00 51 1013.8
20260901014558 88 0 0.0 1.0 0.00 0.00 0.00 51 1013.7
20260901014033 88 109 0.0 2.0 0.00 0.00 0.00 49 1013.6
20260901013533 89 109 0.0 2.0 0.00 0.00 0.00 49 1013.6
20260901013054 89 0 0.0 2.0 0.00 0.00 0.00 49 1013.6
20260901012532 90 109 0.0 2.0 0.00 0.00 0.00 48 1013.5
20260901012031 90 0 0.0 2.0 0.00 0.00 0.00 47 1013.4
20260901011556 91 109 0.0 2.0 0.00 0.00 0.00 46 1013.5
20260901011033 91 0 0.0 2.0 0.00 0.00 0.00 45 1013.4
20260901010530 92 0 0.0 3.0 0.00 0.00 0.00 44 1013.5
20260901005535 92 109 1.0 7.0 0.00 0.00 0.00 42 1013.2
20260901005033 93 114 3.0 7.0 0.00 0.00 0.00 41 1013.2
20260901004607 93 123 3.0 8.0 0.00 0.00 0.00 41 1013.2
20260901004029 93 100 3.0 8.0 0.00 0.00 0.00 41 1013.2
20260901003532 93 97 4.0 10.0 0.00 0.00 0.00 41 1013.2
20260901003056 94 108 4.0 11.0 0.00 0.00 0.00 41 1013.2
20260901002535 94 124 7.0 11.0 0.00 0.00 0.00 40 1013.1
20260901002033 94 137 5.0 12.0 0.00 0.00 0.00 40 1013.1
20260901001558 94 93 5.0 12.0 0.00 0.00 0.00 41 1013.1
20260901001032 94 99 3.0 12.0 0.00 0.00 0.00 40 1013.0
20260901000533 94 142 6.0 12.0 0.00 0.00 0.00 39 1013.0
20260901000054 94 89 5.0 12.0 0.00 0.00 0.00 40 1013.0
20260831235533 94 66 5.0 12.0 0.00 0.00 0.00 40 1013.1
20260831235033 95 126 6.0 13.0 0.00 0.00 0.00 41 1013.1
20260831234601 95 123 7.0 13.0 0.00 0.00 0.00 40 1013.0
20260831234034 95 127 5.0 13.0 0.00 0.00 0.00 40 1013.0
20260831233532 95 108 6.0 13.0 0.00 0.00 0.00 39 1013.0
20260831233058 96 79 6.0 16.0 0.00 0.00 0.00 39 1013.0
20260831232535 96 132 6.0 16.0 0.00 0.00 0.00 39 1013.0
20260831232033 96 117 10.0 16.0 0.00 0.00 0.00 40 1013.1
20260831231558 96 93 9.0 16.0 0.00 0.00 0.00 39 1013.1
20260831231033 96 93 9.0 16.0 0.00 0.00 0.00 39 1013.0
20260831230530 96 142 6.0 11.0 0.00 0.00 0.00 39 1013.0
20260831230055 96 184 4.0 13.0 0.00 0.00 0.00 39 1013.0
20260831225532 96 101 6.0 13.0 0.00 0.00 0.00 40 1013.0
20260831225037 96 108 8.0 17.0 0.00 0.00 0.00 40 1013.2
20260831224600 96 100 6.0 19.0 0.00 0.00 0.00 38 1013.2
20260831224036 98 120 10.0 19.0 0.00 0.00 0.00 37 1013.2
20260831223534 98 96 9.0 19.0 0.00 0.00 0.00 39 1013.1
20260831223049 98 149 6.0 11.0 0.00 0.00 0.00 38 1013.2
20260831222534 98 112 7.0 18.0 0.00 0.00 0.00 38 1013.2
20260831222032 98 95 7.0 18.0 0.00 0.00 0.00 37 1013.3
20260831221604 99 143 6.0 16.0 0.00 0.00 0.00 38 1013.4
20260831221036 99 91 8.0 20.0 0.00 0.00 0.00 38 1013.4
20260831220533 100 112 11.0 20.0 0.00 0.00 0.00 36 1013.5
20260831220105 100 111 5.0 12.0 0.00 0.00 0.00 36 1013.4
20260831215534 99 130 7.0 15.0 0.00 0.00 0.00 36 1013.5
20260831215036 99 128 8.0 17.0 0.00 0.00 0.00 35 1013.7
20260831214600 101 116 9.0 17.0 0.00 0.00 0.00 36 1013.7
20260831214032 101 99 6.0 16.0 0.00 0.00 0.00 36 1013.7
20260831213533 100 167 7.0 16.0 0.00 0.00 0.00 35 1013.8
20260831213103 100 358 5.0 14.0 0.00 0.00 0.00 37 1013.8
20260831212533 101 112 8.0 14.0 0.00 0.00 0.00 35 1013.9
20260831212037 101 125 8.0 16.0 0.00 0.00 0.00 34 1014.0
20260831211604 101 133 6.0 16.0 0.00 0.00 0.00 37 1014.1
20260831211033 100 164 7.0 16.0 0.00 0.00 0.00 36 1014.2
20260831210534 100 221 6.0 12.0 0.00 0.00 0.00 34 1014.2
20260831210104 99 151 5.0 15.0 0.00 0.00 0.00 36 1014.3
20260831205534 98 161 6.0 17.0 0.00 0.00 0.00 36 1014.4
20260831205033 101 91 8.0 17.0 0.00 0.00 0.00 34 1014.6
20260831204600 101 149 6.0 15.0 0.00 0.00 0.00 35 1014.6
20260831204036 101 74 9.0 16.0 0.00 0.00 0.00 36 1014.7
20260831203535 100 108 7.0 16.0 0.00 0.00 0.00 38 1014.8
20260831203107 100 111 10.0 18.0 0.00 0.00 0.00 38 1014.9
20260831202533 99 15 4.0 18.0 0.00 0.00 0.00 37 1015.0
20260831202033 99 164 10.0 18.0 0.00 0.00 0.00 38 1015.2
20260831201551 100 110 6.0 22.0 0.00 0.00 0.00 37 1015.2
20260831201036 99 101 9.0 22.0 0.00 0.00 0.00 40 1015.2
20260831200535 98 134 4.0 19.0 0.00 0.00 0.00 39 1015.3
20260831200103 98 125 7.0 14.0 0.00 0.00 0.00 41 1015.4
20260831195533 97 99 7.0 15.0 0.00 0.00 0.00 40 1015.4
20260831195032 96 135 2.0 16.0 0.00 0.00 0.00 41 1015.5
20260831194556 98 151 7.0 17.0 0.00 0.00 0.00 39 1015.6
20260831194034 99 118 9.0 17.0 0.00 0.00 0.00 40 1015.7
20260831193533 99 145 3.0 14.0 0.00 0.00 0.00 41 1015.6
20260831193057 98 78 6.0 14.0 0.00 0.00 0.00 44 1015.8
20260831192534 96 108 6.0 15.0 0.00 0.00 0.00 44 1015.8
20260831192033 95 160 6.0 15.0 0.00 0.00 0.00 45 1015.9
20260831191551 97 164 5.0 14.0 0.00 0.00 0.00 43 1015.9
20260831191033 96 160 6.0 14.0 0.00 0.00 0.00 43 1016.0
20260831190533 97 55 4.0 18.0 0.00 0.00 0.00 43 1016.0
20260831190106 97 139 4.0 19.0 0.00 0.00 0.00 43 1016.1
20260831185532 97 140 8.0 19.0 0.00 0.00 0.00 42 1016.2
20260831185031 97 156 9.0 17.0 0.00 0.00 0.00 44 1016.1
20260831184602 97 117 8.0 17.0 0.00 0.00 0.00 44 1016.1
20260831184032 96 144 5.0 13.0 0.00 0.00 0.00 45 1016.2
20260831183532 94 181 6.0 14.0 0.00 0.00 0.00 47 1016.3
20260831183056 93 133 7.0 17.0 0.00 0.00 0.00 48 1016.4
20260831182534 96 36 3.0 17.0 0.00 0.00 0.00 48 1016.3
20260831182030 96 137 10.0 18.0 0.00 0.00 0.00 46 1016.4
20260831181600 95 130 8.0 18.0 0.00 0.00 0.00 47 1016.5
20260831181034 96 143 6.0 18.0 0.00 0.00 0.00 48 1016.6
20260831180535 96 160 6.0 16.0 0.00 0.00 0.00 48 1016.7
20260831175532 95 68 7.0 19.0 0.00 0.00 0.00 50 1016.8
20260831175033 94 87 8.0 19.0 0.00 0.00 0.00 50 1016.8
20260831174550 93 172 3.0 15.0 0.00 0.00 0.00 53 1016.8
20260831174032 94 120 6.0 15.0 0.00 0.00 0.00 53 1017.0
20260831173533 94 112 9.0 14.0 0.00 0.00 0.00 50 1017.0
20260831173056 94 143 7.0 14.0 0.00 0.00 0.00 51 1017.0
20260831172534 94 105 6.0 14.0 0.00 0.00 0.00 53 1017.0
20260831172033 94 176 7.0 17.0 0.00 0.00 0.00 52 1016.9
20260831171558 93 116 6.0 17.0 0.00 0.00 0.00 55 1017.0
20260831171033 91 147 4.0 15.0 0.00 0.00 0.00 56 1017.0
20260831170533 93 109 9.0 15.0 0.00 0.00 0.00 55 1017.1
20260831170049 92 90 9.0 15.0 0.00 0.00 0.00 56 1017.2
20260831165533 91 133 7.0 14.0 0.00 0.00 0.00 56 1017.2
20260831165032 92 106 4.0 14.0 0.00 0.00 0.00 56 1017.2
20260831164625 92 149 3.0 15.0 0.00 0.00 0.00 57 1017.2
20260831164032 92 108 7.0 15.0 0.00 0.00 0.00 56 1017.2
20260831163534 91 160 6.0 15.0 0.00 0.00 0.00 58 1017.2
20260831163056 90 85 6.0 14.0 0.00 0.00 0.00 57 1017.1
20260831162534 90 116 7.0 15.0 0.00 0.00 0.00 60 1017.2
20260831162035 90 112 8.0 15.0 0.00 0.00 0.00 60 1017.3
20260831161558 90 88 5.0 14.0 0.00 0.00 0.00 63 1017.3
20260831161034 89 176 6.0 14.0 0.00 0.00 0.00 62 1017.3
20260831160535 88 107 7.0 14.0 0.00 0.00 0.00 63 1017.3
20260831155535 88 182 8.0 15.0 0.00 0.00 0.00 64 1017.3
20260831155035 87 174 5.0 12.0 0.00 0.00 0.00 66 1017.2
20260831154615 87 149 6.0 12.0 0.00 0.00 0.00 68 1017.3
20260831154034 86 118 4.0 15.0 0.00 0.00 0.00 69 1017.3
20260831153533 86 126 8.0 15.0 0.00 0.00 0.00 71 1017.3
20260831153101 86 87 3.0 10.0 0.00 0.00 0.00 71 1017.2
20260831152533 85 161 3.0 14.0 0.00 0.00 0.00 72 1017.3
20260831152033 85 186 7.0 14.0 0.00 0.00 0.00 73 1017.2
20260831151605 84 146 6.0 14.0 0.00 0.00 0.00 75 1017.2
20260831151033 84 160 6.0 14.0 0.00 0.00 0.00 75 1017.0
20260831150535 85 139 7.0 14.0 0.00 0.00 0.00 75 1017.1
20260831150058 84 161 5.0 13.0 0.00 0.00 0.00 78 1017.1
20260831145535 83 138 5.0 12.0 0.00 0.00 0.00 78 1017.1
20260831145035 83 151 6.0 12.0 0.00 0.00 0.00 79 1017.1
20260831144614 83 132 6.0 14.0 0.00 0.00 0.00 78 1017.1
20260831144035 83 166 6.0 14.0 0.00 0.00 0.00 80 1017.1
20260831143534 82 133 6.0 11.0 0.00 0.00 0.00 80 1017.0
20260831143101 82 195 5.0 11.0 0.00 0.00 0.00 81 1017.1
20260831142534 81 129 5.0 11.0 0.00 0.00 0.00 83 1017.0
20260831142035 81 80 6.0 11.0 0.00 0.00 0.00 83 1017.0
20260831141607 82 145 6.0 11.0 0.00 0.00 0.00 83 1017.1
20260831141033 80 153 5.0 11.0 0.00 0.00 0.00 86 1017.1
20260831140534 80 120 5.0 10.0 0.00 0.00 0.00 88 1017.1
20260831140054 78 97 3.0 10.0 0.00 0.00 0.00 91 1017.0
20260831135538 78 116 5.0 10.0 0.00 0.00 0.00 91 1016.8
20260831135038 78 122 5.0 10.0 0.00 0.00 0.00 91 1016.9